PROFILE

 METAR AND TAF INFORMATION
ADDS - METARS form results

(0600 UTC 22 September 2019)
http://aviationweather.gov/metar/data/
 
RJBB 220530Z 04011KT 9999 -SHRA FEW015 SCT030 BKN045 28/22 Q1008 NOSIG
TAF RJBB 220506Z 2206/2312 05013KT 9999 FEW025 BKN040 BECMG 2212/2214 17026KT TEMPO 2218/2300 19034G46KT TEMPO 2300/2303 20024G36KT BECMG 2306/2309 25010KT 

 AIRPORT MAP

 RUNWAY INFORMATION
Runway 06L Runway length 13123 ft Runway width 196 ft
Runway elevation 24 ft Runway displaced threshold 0 ft Runway heading 51
Runway 24R Runway length 13123 ft Runway width 196 ft
Runway elevation 32 ft Runway displaced threshold 0 ft Runway heading 231
Runway 06R Runway length 11483 ft Runway width 196 ft
Runway elevation 6 ft Runway displaced threshold 0 ft Runway heading 51
Runway 24L Runway length 11483 ft Runway width 196 ft
Runway elevation 15 ft Runway displaced threshold 0 ft Runway heading 231

 AIRPORT FREQUENCIES
Type APP Name APP Frequency 120.25 MHZ
Type ATIS Name ATIS Frequency 127.85 MHZ
Type CLD Name CLNC DEL Frequency 121.9 MHZ
Type DEP Name DEP Frequency 119.2 MHZ
Type GND Name GND Frequency 121.6 MHZ
Type TCA Name TCA Frequency 121.1 MHZ
Type TWR Name TWR Frequency 118.2 MHZ

 AIRPORT NEAR NAVIGATION AIDS
Type NDB Name Kansai Frequency 346 KHZ
Type VOR-DME Name Kansai Frequency 111800 KHZ
Type VOR-DME Name Shigi Frequency 111600 KHZ
Type VOR-DME Name Shinoda Frequency 112300 KHZ
Type VOR-DME Name Tomo Frequency 116400 KHZ